Flag for Germany Weather past 2 weeks in Esslingen, Baden-Württemberg, Germany

Now
70 °F

Sunny.


Feels Like: 70 °F
Forecast: 65 / 81 °F
Wind: 2 mph from North

Location: Stuttgart-Echterdingen

Current Time: Jul 5, 2015 at 7:28:11 AM

Latest Report: Jul 5, 2015 at 6:50 AM


Visibility: 10 mi

Pressure: 30.09 "Hg

Humidity: 83%

Dew point: 64 °F

Location of EsslingenLocation

Historic Weather in Esslingen — Graph

°F

Esslingen temperature yesterday

Maximum temperature yesterday: 95 °F (at 2:50 PM)
Minimum temperature yesterday: 64 °F (at 5:20 AM)
Average temperature yesterday: 81 °F

Past Weeks' High & Low Weather Summary

 TemperatureHumidityPressure
High95 °F (Jul 4, 2:50 PM)100% (Jun 22, 3:20 AM)30.27 "Hg (Jun 22, 3:20 AM)
Low46 °F (Jun 24, 4:50 AM)22% (Jul 4, 6:20 PM)29.74 "Hg (Jun 22, 8:50 PM)
Average67 °F69%30.12 "Hg
* Reported Jun 20 6:20 AM — Jul 5 6:20 AM, Esslingen, Weather by CustomWeather, © 2015

Note: Actual official high and low records may vary slightly from our data, if they occured in-between our weather recording intervals... More about our weather records

Advertising

Esslingen weather history for previous 24 hours

 ConditionsComfort  
Time TempWeatherWind HumidityBarometerVisibility
6:20 AM
Sun, Jul 5
66 °FClear.No wind88%30.09 "Hg10 mi
5:50 AM66 °FClear.1 mph88%30.09 "Hg10 mi
5:20 AM66 °FClear.1 mph88%30.09 "Hg10 mi
4:50 AM68 °FClear.2 mph83%30.09 "Hg10 mi
4:20 AM68 °FClear.1 mph88%30.09 "Hg10 mi
3:50 AM68 °FClear.1 mph83%30.12 "Hg10 mi
3:20 AM70 °FClear.3 mph83%30.12 "Hg10 mi
2:50 AM70 °FClear.2 mph78%30.12 "Hg10 mi
2:20 AM72 °FClear.3 mph73%30.12 "Hg10 mi
1:50 AM72 °FClear.1 mph78%30.12 "Hg10 mi
1:20 AM73 °FClear.1 mph74%30.12 "Hg10 mi
12:50 AM73 °FClear.2 mph74%30.12 "Hg10 mi
12:20 AM75 °FClear.1 mph65%30.12 "Hg10 mi
11:50 PM
Sat, Jul 4
77 °FPassing clouds.3 mph61%30.12 "HgN/A
11:20 PM81 °FPassing clouds.3 mph51%30.12 "HgN/A
10:50 PM79 °FClear.3 mph58%30.12 "Hg10 mi
10:20 PM81 °FSunny.1 mph54%30.12 "Hg10 mi
9:50 PM82 °FSunny.1 mph51%30.12 "Hg10 mi
9:20 PM86 °FScattered clouds.1 mph40%30.12 "HgN/A
8:50 PM90 °FScattered clouds.2 mph33%30.12 "HgN/A
8:20 PM91 °FPassing clouds.5 mph30%30.12 "HgN/A
7:50 PM93 °FSunny.5 mph26%30.12 "Hg10 mi
7:20 PM93 °FPassing clouds.8 mph28%30.12 "HgN/A
6:50 PM95 °FSunny.8 mph25%30.12 "Hg10 mi
6:20 PM95 °FScattered clouds.8 mph22%30.12 "HgN/A
5:50 PM95 °FPartly sunny.9 mph23%30.12 "HgN/A
5:20 PM93 °FPartly sunny.1 mph36%30.12 "HgN/A
4:50 PM93 °FPartly sunny.2 mph41%30.12 "HgN/A
4:20 PM95 °FPartly sunny.2 mph36%30.12 "HgN/A
3:50 PM95 °FPartly sunny.2 mph34%30.15 "HgN/A
3:20 PM95 °FSunny.2 mph34%30.15 "Hg10 mi
2:50 PM95 °FPassing clouds.6 mph36%30.15 "HgN/A
2:20 PM93 °FSunny.2 mph39%30.15 "Hg10 mi
1:50 PM93 °FPassing clouds.7 mph39%30.15 "HgN/A
1:20 PM91 °FPassing clouds.6 mph44%30.15 "HgN/A
12:50 PM91 °FPassing clouds.7 mph46%30.15 "HgN/A
12:20 PM90 °FPassing clouds.6 mph49%30.18 "HgN/A
11:50 AM88 °FSunny.3 mph46%30.18 "Hg10 mi
11:20 AM88 °FSunny.3 mph49%30.18 "Hg10 mi
10:50 AM86 °FPassing clouds.5 mph52%30.18 "HgN/A
10:20 AM84 °FPassing clouds.5 mph55%30.18 "HgN/A
9:50 AM82 °FPassing clouds.3 mph55%30.18 "HgN/A
9:20 AM79 °FSunny.2 mph61%30.18 "Hg10 mi
8:50 AM77 °FPassing clouds.3 mph74%30.18 "HgN/A
8:20 AM73 °FPassing clouds.5 mph83%30.18 "HgN/A
7:50 AM72 °FSunny.2 mph83%30.18 "Hg10 mi
7:20 AM70 °FSunny.1 mph88%30.18 "Hg10 mi
Weather by CustomWeather, © 2015

See weather overviewHow to use our weather pages